Flag for United Kingdom Weather past 2 weeks in Winchester, England, United Kingdom

52 °F

Broken clouds.

Feels Like: 49 °F
Forecast: N/A
Wind: 7 mph from Northwest

Location: Middle Wallop

Current Time: Nov 26, 2015 at 2:46:39 PM

Latest Report: Nov 26, 2015 at 1:50 PM

Visibility: N/A

Pressure: 30.12 "Hg

Humidity: 82%

Dew point: 46 °F

Location of WinchesterLocation

Historic Weather in Winchester — Graph


Winchester temperature yesterday

Maximum temperature yesterday: 52 °F (at 11:50 AM)
Minimum temperature yesterday: 45 °F (at 6:50 AM)
Average temperature yesterday: 48 °F

Past Weeks' High & Low Weather Summary

High61 °F (Nov 17, 2:50 PM)100% (Nov 12, 3:50 AM)30.33 "Hg (Nov 12, 3:50 AM)
Low28 °F (Nov 22, 1:50 AM)39% (Nov 21, 12:50 PM)29.56 "Hg (Nov 17, 1:50 PM)
Average48 °F83%29.96 "Hg
* Reported Nov 11 1:50 PM — Nov 26 1:50 PM, Winchester, Weather by CustomWeather, © 2015

Note: Actual official high and low records may vary slightly from our data, if they occured in-between our weather recording intervals... More about our weather records


Winchester weather history for previous 24 hours

Time TempWeatherWind HumidityBarometerVisibility
1:50 PM
Thu, Nov 26
52 °FBroken clouds.7 mph82%30.12 "HgN/A
12:50 PM52 °FDrizzle. Broken clouds.8 mph82%30.15 "HgN/A
11:50 AM52 °FPartly sunny.9 mph77%30.15 "HgN/A
10:50 AM50 °FScattered clouds.8 mph82%30.15 "HgN/A
9:50 AM50 °FPartly sunny.8 mph82%30.12 "HgN/A
8:50 AM48 °FPartly sunny.9 mph82%30.12 "HgN/A
7:50 AM46 °FBroken clouds.6 mph87%30.12 "HgN/A
6:50 AM46 °FPassing clouds.6 mph87%30.09 "HgN/A
5:50 AM46 °FPassing clouds.7 mph87%30.09 "HgN/A
4:50 AM48 °FPassing clouds.13 mph82%30.07 "HgN/A
3:50 AM46 °FPassing clouds.8 mph87%30.07 "HgN/A
2:50 AM46 °FPartly cloudy.7 mph93%30.07 "HgN/A
1:50 AM46 °FPartly cloudy.6 mph93%30.07 "HgN/A
12:50 AM46 °FPassing clouds.6 mph100%30.04 "HgN/A
11:50 PM
Wed, Nov 25
48 °FPartly cloudy.6 mph94%30.04 "Hg3 mi
10:50 PM46 °FPassing clouds.6 mph100%30.04 "HgN/A
9:50 PM46 °FPassing clouds.5 mph100%30.04 "HgN/A
8:50 PM48 °FPassing clouds.10 mph94%30.04 "HgN/A
7:50 PM48 °FPassing clouds.12 mph94%30.01 "Hg2 mi
6:50 PM48 °FPassing clouds.14 mph87%30.01 "HgN/A
5:50 PM48 °FPassing clouds.13 mph82%29.98 "HgN/A
4:50 PM48 °FPassing clouds.17 mph82%29.95 "HgN/A
3:50 PM48 °FLight rain. Partly sunny.13 mph87%29.92 "HgN/A
2:50 PM48 °FLight rain. Broken clouds.13 mph87%29.92 "HgN/A
Weather by CustomWeather, © 2015

See weather overviewHow to use our weather pages